Regional Weather Roundup
Issued by NWS Little Rock, AR

Home | Current Version | Previous Version | Graphics & Text | Print | Product List | Glossary On
Versions: 1 2 3 4 5 6 7 8 9 10 11 12 13 14 15 16 17 18 19 20 21 22 23 24 25 26 27 28 29 30 31 32 33 34 35 36 37 38 39 40 41 42 43 44 45 46 47 48 49 50
000
ASUS44 KLZK 261905
RWRLZK

WEATHER ROUNDUP FOR ARKANSAS
NATIONAL WEATHER SERVICE LITTLE ROCK AR
200 PM CDT FRI AUG 26 2016

NOTE: "FAIR" INDICATES FEW OR NO CLOUDS BELOW 12,000 FEET WITH NO
SIGNIFICANT WEATHER AND/OR OBSTRUCTIONS TO VISIBILITY.

ARZ001-003-010-029-262000-
NORTHWEST ARKANSAS

CITY           SKY/WX    TMP DP  RH WIND       PRES   REMARKS
FAYETTEVILLE   CLOUDY    77  72  84 S3        30.12F THUNDER
FORT SMITH     PTSUNNY   80  70  71 E5        30.08F
HARRISON       MOSUNNY   83  68  60 SE3       30.11F HX  86
BENTONVILLE    PTSUNNY   73  70  88 SW3       30.13S
ROGERS         LGT RAIN  73  72  94 S5        30.14R
SILOAM SPGS    CLOUDY    72  64  78 SE7       30.14F
HIGHFILL       LGT RAIN  73  73 100 S6        30.12S FOG
SPRINGDALE     CLOUDY    75  72  88 SE6       30.14F
$$

ARZ004-005-016-262000-
NORTH CENTRAL ARKANSAS

CITY           SKY/WX    TMP DP  RH WIND       PRES   REMARKS
BATESVILLE     MOSUNNY   88  73  62 E6        30.06F HX  96
FLIPPIN        MOSUNNY   86  70  58 CALM      30.06F HX  90
MTN HOME       PTSUNNY   85  72  65 CALM      30.08F HX  91
$$

ARZ040-041-262000-
WEST CENTRAL ARKANSAS

CITY           SKY/WX    TMP DP  RH WIND       PRES   REMARKS
MENA           CLOUDY    82  77  83 W6        30.10F HX  91
MOUNT IDA      CLOUDY    85  70  60 CALM      30.05  HX  89
$$

ARZ009-017-025-026-028-262000-
NORTHEAST ARKANSAS

CITY           SKY/WX    TMP DP  RH WIND       PRES   REMARKS
CORNING          N/A     82  75  78 CALM      30.06F HX  89
JONESBORO      LGT RAIN  83  74  74 N12       30.05S HX  89
NEWPORT        SUNNY     86  74  67 N12       30.05F HX  94
WALNUT RIDGE   MOSUNNY   82  72  69 CALM      30.05F HX  87
BLYTHEVILLE    SUNNY     92  77  61 VRB3      30.04F HX 105
$$

ARZ022-023-033-042-044-262000-
CENTRAL ARKANSAS

CITY           SKY/WX    TMP DP  RH WIND       PRES   REMARKS
LITTLE ROCK    MOSUNNY   92  73  53 SE8       30.03F HX 100
N LITTLE ROCK    N/A     89  73  60 S5        30.01F HX  96
JACKSONVILLE   MOSUNNY   90  75  61 VRB2      30.03F HX 101
SEARCY         CLOUDY    90  76  63 CALM      30.04F HX 101
HOT SPRINGS    MOSUNNY   87  70  56 CALM      30.05F HX  92
RUSSELLVILLE   SUNNY     87  71  58 W3        30.04F HX  93
$$

ARZ036-262000-
EAST ARKANSAS

CITY           SKY/WX    TMP DP  RH WIND       PRES   REMARKS
WEST MEMPHIS   CLOUDY    85  78  80 CALM      30.02F HX  96
$$

ARZ050-053-066-070-073-262000-
SOUTHWEST ARKANSAS

CITY           SKY/WX    TMP DP  RH WIND       PRES   REMARKS
ARKADELPHIA    FAIR      86  72  62 CALM      30.04F HX  92
TEXARKANA      PTSUNNY   84  73  69 E3        30.06F HX  90
EL DORADO      MOSUNNY   88  73  61 E3        30.03F HX  95
DE QUEEN       MOSUNNY   87  75  67 CALM      30.04F HX  96
$$

ARZ056-057-069-262000-
SOUTHEAST ARKANSAS

CITY           SKY/WX    TMP DP  RH WIND       PRES   REMARKS
PINE BLUFF     SUNNY     90  72  55 CALM      30.02F HX  97
STUTTGART      SUNNY     91  72  52 S5        30.04F HX  98
MONTICELLO     SUNNY     92  74  55 S5        30.03F HX 101

$$





USA.gov is the U.S. government's official web portal to all federal, state and local government web resources and services.